JY1SAT (JO-97)

Last updated on Wed Oct 15 2025 00:03:08 GMT+0000 (Coordinated Universal Time)

1 43803U 18099AX 25287.25664645 .00018268 00000+0 74975-3 0 9996 2 43803 97.4513 345.3536 0008045 68.1549 292.0544 15.24250817376049
UTC large
Height (km)
Speed (km/s)
/
Latitude / Longitude
Inclination (degrees)
Orbital Period (minutes)
Azimuth
Elevation
Range (km)
Doppler Factor

Next 0 passes for location: London (51.5072 / 0.1276)

Sorry there are no passes over London.